FW9486 Weather Reports


Display with metric or nautical units.
time (UTC)temp
F
wind
direction
speed
MPH
gust
MPH
rain 1hr
in
rain 24hr
in
rain mn
in
humidity
%
barometer
mb
20260831153044 47 0 0.0 2.0 0.00 0.00 0.00 61 1015.3
20260831151550 45 151 1.0 3.0 0.00 0.00 0.00 62 1015.3
20260831150049 45 131 1.0 2.0 0.00 0.00 0.00 65 1015.4
20260831144545 43 0 0.0 2.0 0.00 0.00 0.00 67 1015.5
20260831143046 43 0 0.0 0.0 0.00 0.00 0.00 65 1015.3
20260831141553 41 0 0.0 0.0 0.00 0.00 0.00 69 1015.3
20260831140047 37 0 0.0 0.0 0.00 0.00 0.00 73 1015.2
20260831134548 36 0 0.0 1.0 0.00 0.00 0.00 74 1015.1
20260831133056 36 0 0.0 1.0 0.00 0.00 0.00 76 1015.1
20260831131554 36 0 0.0 1.0 0.00 0.00 0.00 71 1015.0
20260831130055 36 0 0.0 1.0 0.00 0.00 0.00 74 1014.9
20260831124549 36 0 0.0 1.0 0.00 0.00 0.00 72 1014.8
20260831123052 38 0 0.0 1.0 0.00 0.00 0.00 67 1014.9
20260831121550 38 0 0.0 0.0 0.00 0.00 0.00 69 1014.7
20260831120058 38 0 0.0 0.0 0.00 0.00 0.00 70 1014.7
20260831114545 38 0 0.0 0.0 0.00 0.00 0.00 70 1015.0
20260831113109 39 0 0.0 1.0 0.00 0.00 0.00 70 1014.9
20260831111548 39 0 0.0 0.0 0.00 0.00 0.00 68 1014.9
20260831110048 38 0 0.0 0.0 0.00 0.00 0.00 68 1014.8
20260831104543 39 0 0.0 0.0 0.00 0.00 0.00 65 1014.8
20260831103049 41 0 0.0 0.0 0.00 0.00 0.00 61 1014.9
20260831101552 41 0 0.0 0.0 0.00 0.00 0.00 64 1014.9
20260831100047 41 0 0.0 1.0 0.00 0.00 0.00 64 1014.8
20260831094553 41 0 0.0 0.0 0.00 0.00 0.00 60 1014.9
20260831093043 42 0 0.0 1.0 0.00 0.00 0.00 61 1014.8
20260831091550 42 0 0.0 1.0 0.00 0.00 0.00 60 1014.9
20260831090048 43 0 0.0 0.0 0.00 0.00 0.00 59 1014.9
20260831084547 43 0 0.0 0.0 0.00 0.00 0.00 58 1014.9
20260831083045 44 0 0.0 0.0 0.00 0.00 0.00 57 1014.9
20260831081541 45 0 0.0 0.0 0.00 0.00 0.00 54 1014.8
20260831080050 45 0 0.0 0.0 0.00 0.00 0.00 54 1014.9
20260831074545 45 0 0.0 0.0 0.00 0.00 0.00 55 1015.0
20260831073051 46 0 0.0 0.0 0.00 0.00 0.00 54 1015.0
20260831071554 48 0 0.0 0.0 0.00 0.00 0.00 50 1015.0
20260831070051 48 0 0.0 1.0 0.00 0.00 0.00 51 1015.0
20260831064547 48 0 0.0 1.0 0.00 0.00 0.00 50 1015.0
20260831063052 49 0 0.0 0.0 0.00 0.00 0.00 49 1014.9
20260831061552 49 0 0.0 0.0 0.00 0.00 0.00 48 1015.0
20260831060054 49 18 0.0 1.0 0.00 0.00 0.00 47 1014.9
20260831054549 50 0 0.0 1.0 0.00 0.00 0.00 45 1015.0
20260831053045 52 0 0.0 1.0 0.00 0.00 0.00 41 1014.7
20260831051559 52 0 0.0 1.0 0.00 0.00 0.00 42 1014.7
20260831050056 52 0 0.0 0.0 0.00 0.00 0.00 42 1014.7
20260831044551 54 0 0.0 0.0 0.00 0.00 0.00 39 1014.7
20260831043043 56 0 0.0 0.0 0.00 0.00 0.00 37 1014.6
20260831041552 57 0 0.0 1.0 0.00 0.00 0.00 35 1014.5
20260831040053 58 0 0.0 3.0 0.00 0.00 0.00 35 1014.3
20260831034551 57 354 0.0 2.0 0.00 0.00 0.00 36 1014.3
20260831033051 58 11 0.0 1.0 0.00 0.00 0.00 35 1014.2
20260831031553 58 13 0.0 1.0 0.00 0.00 0.00 35 1014.1
20260831030050 60 79 0.0 2.0 0.00 0.00 0.00 32 1013.9
20260831024548 61 6 0.0 2.0 0.00 0.00 0.00 30 1013.7
20260831023044 62 353 0.0 2.0 0.00 0.00 0.00 30 1013.7
20260831021543 65 0 0.0 3.0 0.00 0.00 0.00 27 1013.5
20260831020055 66 316 1.0 4.0 0.00 0.00 0.00 27 1013.5
20260831014550 66 311 1.0 3.0 0.00 0.00 0.00 26 1013.7
20260831013103 67 288 1.0 8.0 0.00 0.00 0.00 25 1013.6
20260831011546 68 314 1.0 6.0 0.00 0.00 0.00 25 1013.8
20260831010044 69 274 1.0 7.0 0.00 0.00 0.00 24 1013.8
20260831004548 70 261 4.0 8.0 0.00 0.00 0.00 23 1013.9
20260831003103 71 297 3.0 7.0 0.00 0.00 0.00 23 1013.9
20260831001549 71 267 3.0 7.0 0.00 0.00 0.00 23 1013.8
20260831000049 71 295 2.0 6.0 0.00 0.00 0.00 22 1013.9
20260830234548 71 96 1.0 10.0 0.00 0.00 0.00 22 1014.0
20260830233053 71 295 2.0 8.0 0.00 0.00 0.00 22 1014.1
20260830231549 70 43 2.0 9.0 0.00 0.00 0.00 23 1014.1
20260830230048 70 275 3.0 8.0 0.00 0.00 0.00 21 1014.2
20260830224549 70 254 5.0 11.0 0.00 0.00 0.00 22 1014.3
20260830223104 71 126 3.0 13.0 0.00 0.00 0.00 20 1014.5
20260830221556 70 269 4.0 11.0 0.00 0.00 0.00 21 1014.5
20260830220051 71 333 4.0 9.0 0.00 0.00 0.00 21 1014.6
20260830214544 71 298 3.0 10.0 0.00 0.00 0.00 20 1014.6
20260830213042 71 268 4.0 9.0 0.00 0.00 0.00 18 1014.9
20260830211547 70 262 4.0 9.0 0.00 0.00 0.00 22 1014.9
20260830210048 70 229 6.0 11.0 0.00 0.00 0.00 21 1014.9
20260830204552 70 198 5.0 10.0 0.00 0.00 0.00 21 1014.9
20260830203051 71 293 3.0 11.0 0.00 0.00 0.00 20 1015.0
20260830201553 70 171 2.0 8.0 0.00 0.00 0.00 19 1015.1
20260830200049 69 252 4.0 10.0 0.00 0.00 0.00 18 1015.2
20260830194546 68 172 5.0 10.0 0.00 0.00 0.00 22 1015.2
20260830193051 67 255 5.0 12.0 0.00 0.00 0.00 24 1015.2
20260830191551 68 293 3.0 10.0 0.00 0.00 0.00 26 1015.3
20260830190055 67 236 4.0 10.0 0.00 0.00 0.00 26 1015.6
20260830184604 65 193 3.0 6.0 0.00 0.00 0.00 31 1015.7
20260830183059 64 84 2.0 6.0 0.00 0.00 0.00 32 1015.7
20260830181550 63 91 3.0 6.0 0.00 0.00 0.00 34 1015.8
20260830180049 63 113 3.0 7.0 0.00 0.00 0.00 33 1016.0
20260830174556 61 162 3.0 9.0 0.00 0.00 0.00 38 1016.0
20260830173051 62 99 2.0 5.0 0.00 0.00 0.00 36 1016.0
20260830171550 59 128 2.0 6.0 0.00 0.00 0.00 40 1016.1
20260830170050 58 141 1.0 4.0 0.00 0.00 0.00 43 1016.2
20260830164541 58 171 1.0 4.0 0.00 0.00 0.00 43 1016.3
20260830163050 57 0 1.0 4.0 0.00 0.00 0.00 45 1016.3
20260830161551 54 133 2.0 6.0 0.00 0.00 0.00 51 1016.4
20260830160044 53 0 2.0 5.0 0.00 0.00 0.00 52 1016.4
20260830154543 52 145 1.0 3.0 0.00 0.00 0.00 55 1016.4